This is the latest recevied weather packets stored in our database for station/object KD4WXI. If no packets are shown the sender has not sent any weather packets the latest 10 day(s).
| Time | Temp. | Humidity | Pressure | Rain* | Wind** | Luminosity | Snow |
|---|---|---|---|---|---|---|---|
| 1777838929 | 20° C | 31% | 1017.5 hPa | 0 mm | - | 560 W/m² | - |
| 1777838624 | 20.56° C | 31% | 1017.7 hPa | 0 mm | - | 573 W/m² | - |
| 1777838322 | 20° C | 31% | 1017.6 hPa | 0 mm | - | 586 W/m² | - |
| 1777838018 | 20° C | 30% | 1017.8 hPa | 0 mm | - | 597 W/m² | - |
| 1777837716 | 20° C | 32% | 1017.9 hPa | 0 mm | - | 608 W/m² | - |
| 1777837411 | 20° C | 31% | 1017.7 hPa | 0 mm | - | 619 W/m² | - |
| 1777837108 | 20.56° C | 30% | 1018.2 hPa | 0 mm | - | 629 W/m² | - |
| 1777836804 | 19.44° C | 31% | 1018.1 hPa | 0 mm | - | 638 W/m² | - |
| 1777836500 | 19.44° C | 34% | 1018.1 hPa | 0 mm | - | 650 W/m² | - |
| 1777836195 | 20.56° C | 31% | 1018.3 hPa | 0 mm | - | 659 W/m² | - |
| 1777835892 | 20° C | 31% | 1018.5 hPa | 0 mm | - | 667 W/m² | - |
| 1777835589 | 19.44° C | 29% | 1018.5 hPa | 0 mm | - | 677 W/m² | - |
| 1777835286 | 19.44° C | 31% | 1018.5 hPa | 0 mm | - | 686 W/m² | - |
| 1777834983 | 19.44° C | 34% | 1018.7 hPa | 0 mm | - | 693 W/m² | - |
| 1777834680 | 18.89° C | 33% | 1018.6 hPa | 0 mm | - | 702 W/m² | - |
| 1777834375 | 18.89° C | 33% | 1018.8 hPa | 0 mm | - | 709 W/m² | - |
| 1777834075 | 18.89° C | 34% | 1018.7 hPa | 0 mm | - | 715 W/m² | - |
| 1777833772 | 17.78° C | 33% | 1018.9 hPa | 0 mm | - | 722 W/m² | - |
| 1777833468 | 20° C | 33% | 1018.9 hPa | 0 mm | - | 728 W/m² | - |
| 1777833166 | 20° C | 32% | 1018.8 hPa | 0 mm | - | 735 W/m² | - |
| 1777832863 | 18.89° C | 37% | 1019.1 hPa | 0 mm | - | 740 W/m² | - |
| 1777832562 | 17.78° C | 33% | 1019.1 hPa | 0 mm | - | 747 W/m² | - |
| 1777832258 | 18.89° C | 33% | 1019.2 hPa | 0 mm | - | 752 W/m² | - |
| 1777831955 | 18.89° C | 36% | 1019.2 hPa | 0 mm | - | 757 W/m² | - |
| 1777831652 | 18.89° C | 34% | 1019.2 hPa | 0 mm | - | 763 W/m² | - |
* Rain latest hour (hover to see other rain measurements)
** Current wind speed in m/s (hover to see current wind gust speed)